Starlink 36214

operational
NORAD ID: 67129 Int'l Des: 2025-299 Owner: SPXS Country: US Constellation: starlink
LEOCIRCULAR

关于 Starlink 36214

正在加载描述...

实时位置

正在加载3D地球...

即将过境

高度历史

Altitude vs Time

uPlot chart will show altitude changes over time

两行轨道根数

1 67129C 25299AD 25349.43451389 .00346600 00000+0 54223-3 0 3498
2 67129 43.0017 301.4678 0007487 263.2914 339.2422 16.02603378 16
Epoch: Dec 15, 2025 • Age: 93 hours

当前状态

高度 264.4 km
速度 7.75 km/s
星下点 35.26°N, 79.53°W
发射日期 Dec 15, 2025
运行时间 3 days
类型 internet

技术详情

分类 Payload
质量 575.00 kg
干质量 530.00 kg
总质量 575.00 kg
长度 0.30 m
直径 4.10 m
跨度 29.00 m
形状 Box + pan
制造商 SPXS
平台类型 Starlink V2MO
阶段状态 In Orbit
所有者/国家 SPXS/US

大型星座

Loading constellations...